Location: Unspecified
(0.0000°N, 0.0000°E)
Time: 17:40:21
(UTC+01:00)

Amateur Radio Satellites - All Passes

Search period start: 01 February 2015 17:10
Search period end: 02 February 2015 17:10
Location: Unspecified, 0.0000°N, 0.0000°E

Satellite Date Start Highest point End Downlink Frequencies (MHz)
Time Altitude Azimuth
SRMSAT 01 Feb 17:10:29 17:14:39 19° 346° (NNW) 17:18:45 437.500
MOZHAYETS 4 01 Feb 17:27:46 17:32:21 79° 102° (ESE) 17:36:59
RS-15 01 Feb 17:57:51 18:06:28 21° 244° (WSW) 18:14:14 29.354- 29.394
CUTE-I 01 Feb 18:01:17 18:04:23 16° 79° (E) 18:07:46 437.470
AO-7 01 Feb 18:06:48 18:13:28 25° 255° (WSW) 18:19:45 29.400- 29.500
PRISM 01 Feb 18:08:50 18:10:35 13° 101° (E) 18:12:37 437.425
JAS-2 01 Feb 18:46:26 18:49:27 13° 256° (WSW) 18:51:52 435.910
SRMSAT 01 Feb 19:03:20 19:04:45 11° 355° (N) 19:06:07 437.500
ISS 01 Feb 19:09:06 19:12:13 44° 306° (NW) 19:15:19 145.825
Cubesat XI-IV 01 Feb 19:20:14 19:25:25 52° 258° (WSW) 19:30:33 437.490
STRAND 1 01 Feb 19:22:16 19:27:19 60° 102° (ESE) 19:32:25 437.568
CUBESAT XI-V 01 Feb 19:30:01 19:34:41 65° 282° (WNW) 19:39:23 437.345
YUBILEINY 01 Feb 19:31:36 19:40:02 57° 94° (E) 19:48:30 435.215
CUTE-I 01 Feb 19:39:39 19:44:22 31° 258° (WSW) 19:48:59 437.470
PRISM 01 Feb 19:42:33 19:45:59 24° 281° (W) 19:49:22 437.425
JUGNU 01 Feb 20:06:23 20:08:53 13° 9° (N) 20:11:29 437.505
HO-68 01 Feb 20:11:48 20:14:42 13° 78° (ENE) 20:18:13 435.675
BRITE-PL 01 Feb 20:29:27 20:32:31 18° 78° (ENE) 20:35:58 437.365/2234.400
SEEDS 01 Feb 20:53:07 20:55:53 17° 80° (E) 20:58:49 437.485
SRMSAT 01 Feb 20:53:52 20:55:06 11° 5° (N) 20:56:25 437.500
SO-50 01 Feb 21:06:03 21:10:54 68° 248° (WSW) 21:15:40 436.795
COMPASS 1 01 Feb 21:13:43 21:17:18 27° 79° (E) 21:20:56 437.405
YUBILEINY 01 Feb 21:31:27 21:36:51 17° 276° (W) 21:41:29 435.215
AAUSAT CUBESAT 2 01 Feb 21:36:43 21:40:50 51° 79° (E) 21:44:56 437.432
CANX-2 01 Feb 21:38:06 21:42:25 69° 259° (W) 21:46:42 2200.000
DOVE 4 01 Feb 21:38:21 21:43:01 62° 78° (ENE) 21:47:59 437.250
GOMX 1 01 Feb 21:43:02 21:47:43 76° 259° (W) 21:52:46 467.674
DX 1 01 Feb 21:45:10 21:46:42 12° 80° (E) 21:48:32 434.975-435.025
CUBEBUG 2 01 Feb 21:48:17 21:51:33 20° 79° (E) 21:55:03 437.445
FUNcube-1 01 Feb 21:52:07 21:54:02 13° 80° (E) 21:56:17 145.935
JUGNU 01 Feb 21:53:45 21:58:38 26° 17° (NNE) 22:03:34 437.505
HO-68 01 Feb 21:55:18 22:02:23 61° 256° (WSW) 22:09:23 435.675
CUTE 1.7 + AOD 2 01 Feb 22:02:05 22:06:02 34° 259° (W) 22:09:55 437.475
BRITE-PL 01 Feb 22:07:11 22:10:56 23° 261° (W) 22:14:44 437.365/2234.400
Oscar 11 01 Feb 22:15:53 22:20:14 75° 79° (E) 22:24:35 145.826/435.025
UWE-3 01 Feb 22:19:39 22:23:59 42° 79° (ENE) 22:28:25 435.000/436.395/437.385
UNISAT 6 01 Feb 22:21:30 22:22:44 11° 100° (E) 22:24:17 437.425
AISAT 01 Feb 22:26:22 22:28:25 14° 80° (E) 22:30:45 437.250
SEEDS 01 Feb 22:28:32 22:31:36 18° 260° (W) 22:34:29 437.485
CINEMA 3 01 Feb 22:35:53 22:40:25 46° 259° (W) 22:45:07 145.822/145.860
SRMSAT 01 Feb 22:41:12 22:45:14 19° 14° (NNE) 22:49:20 437.500
QB50P2 01 Feb 22:46:18 22:48:22 14° 100° (E) 22:50:42 145.880/145.840
DELFI C3 01 Feb 22:46:42 22:50:40 46° 259° (W) 22:54:35 145.870
HUMSAT D 01 Feb 22:49:58 22:54:00 39° 79° (E) 22:58:05 437.325/437.525
VELOX 1 01 Feb 22:50:59 22:54:48 30° 79° (E) 22:58:41 145.980
COMPASS 1 01 Feb 22:51:23 22:52:55 11° 260° (W) 22:54:06 437.405
UKube-1 01 Feb 22:53:19 22:57:37 68° 258° (WSW) 23:01:54 .
QB50P1 01 Feb 22:53:38 22:56:25 18° 100° (E) 22:59:22 145.935-145.965
ANTELSAT 01 Feb 22:55:10 22:59:06 37° 101° (E) 23:03:04 437.575/2403.000
TIGRISAT 01 Feb 23:00:37 23:04:40 43° 101° (E) 23:08:44 435.000
POLYITAN 1 01 Feb 23:10:00 23:13:45 31° 101° (E) 23:17:33 437.675
ZACube-1 01 Feb 23:15:19 23:19:34 40° 259° (W) 23:23:51 437.345
DX 1 01 Feb 23:19:08 23:22:52 27° 259° (W) 23:26:30 434.975-435.025
AIST 1 01 Feb 23:24:18 23:28:42 82° 87° (E) 23:33:08
CUBEBUG 2 01 Feb 23:24:37 23:28:08 21° 260° (W) 23:31:32 437.445
FUNcube-1 01 Feb 23:26:19 23:30:16 29° 259° (W) 23:34:11 145.935
POPSAT HIP 1 01 Feb 23:27:35 23:31:46 57° 101° (E) 23:35:57 437.405
50 SAT 01 Feb 23:27:39 23:31:47 81° 258° (WSW) 23:35:54 437.505
DUCHIFAT 1 01 Feb 23:28:01 23:32:12 57° 102° (ESE) 23:36:22 145.980
JUGNU 01 Feb 23:41:56 23:47:53 67° 21° (NNE) 23:53:52 437.505
UNISAT 6 01 Feb 23:55:48 23:59:27 27° 281° (W) 00:03:01 437.425
SPROUT 01 Feb 23:57:13 23:58:39 12° 80° (E) 00:00:23 437.525
AISAT 02 Feb 00:01:14 00:04:57 26° 259° (W) 00:08:34 437.250
NANOSAT C BR1 02 Feb 00:03:38 00:07:39 40° 281° (W) 00:11:37 145.865
ESTCUBE 1 02 Feb 00:15:18 00:19:39 48° 259° (WSW) 00:23:57 437.505/2401.250
TISAT 1 02 Feb 00:19:36 00:23:01 25° 79° (E) 00:26:31 437.305
BUGSAT 1 02 Feb 00:20:34 00:24:24 32° 281° (W) 00:28:09 437.445
QB50P2 02 Feb 00:20:46 00:24:11 23° 281° (W) 00:27:29 145.880/145.840
CUBEBUG 1 02 Feb 00:24:11 00:28:13 38° 259° (WSW) 00:32:14 437.445
SRMSAT 02 Feb 00:29:11 00:34:50 43° 20° (NNE) 00:40:30 437.500
QB50P1 02 Feb 00:29:12 00:32:12 18° 280° (W) 00:35:01 145.935-145.965
VELOX 1 02 Feb 00:29:41 00:31:18 11° 260° (W) 00:32:34 145.980
BEESAT 2 02 Feb 00:42:48 00:46:47 66° 112° (ESE) 00:50:49 435.950
BEESAT 3 02 Feb 00:53:02 00:57:01 69° 292° (WNW) 01:01:02 437.485
AIST 2 02 Feb 00:58:30 01:02:11 32° 112° (ESE) 01:05:56 435.215
BEESAT 02 Feb 01:08:53 01:09:13 10° 80° (E) 01:09:59 436.000
ITUPSAT 1 02 Feb 01:13:48 01:15:32 12° 80° (E) 01:17:38 437.325
SPROUT 02 Feb 01:30:58 01:34:39 27° 259° (W) 01:38:15 437.525
JUGNU 02 Feb 01:31:17 01:37:00 45° 200° (SSW) 01:42:43 437.505
GONETS M04 02 Feb 01:34:23 01:43:15 82° 93° (E) 01:52:01
Oscar 19 02 Feb 01:42:41 01:47:21 38° 101° (ESE) 01:52:06 437.125/150
TISAT 1 02 Feb 01:56:49 01:58:45 12° 260° (W) 02:00:23 437.305
ITAMSAT 1 02 Feb 02:08:15 02:11:53 20° 101° (E) 02:15:44 435.822/435.867
PCSat 02 Feb 02:10:53 02:14:28 19° 112° (ESE) 02:18:18 145.827
SRMSAT 02 Feb 02:18:08 02:24:06 70° 201° (SSW) 02:30:03 437.500
SWISSCUBE 02 Feb 02:27:18 02:31:59 56° 258° (WSW) 02:36:38 437.505
BEESAT 02 Feb 02:42:33 02:47:02 39° 259° (WSW) 02:51:25 436.000
ITUPSAT 1 02 Feb 02:49:04 02:53:22 33° 258° (WSW) 02:57:35 437.325
VERMONT LUNAR 02 Feb 03:09:25 03:11:05 13° 140° (SE) 03:12:53 437.305
JUGNU 02 Feb 03:22:14 03:26:27 19° 195° (SSW) 03:30:34 437.505
STARS 02 Feb 03:22:51 03:27:10 54° 79° (E) 03:31:31 437.465
AUBIESAT-1 02 Feb 03:23:57 03:26:47 18° 78° (ENE) 03:29:39 437.475
Oscar 19 02 Feb 03:24:24 03:26:39 12° 280° (W) 03:28:30 437.125/150
RS-15 02 Feb 03:25:33 03:36:30 58° 112° (ESE) 03:47:09 29.354- 29.394
Gurwin Techsat 1B 02 Feb 03:26:06 03:31:23 74° 283° (WNW) 03:36:42 435.225
KKS-1 02 Feb 03:37:54 03:42:16 52° 259° (W) 03:46:36 437.445
DANDE 02 Feb 03:45:48 03:52:13 40° 93° (E) 03:59:57 436.750
ITAMSAT 1 02 Feb 03:46:57 03:51:16 25° 281° (WNW) 03:55:27 435.822/435.867
PCSat 02 Feb 03:53:08 03:57:48 28° 291° (WNW) 04:02:19 145.827
CUSAT 1 02 Feb 03:53:40 04:00:37 59° 94° (E) 04:08:49 437.405
O/OREOS (USA 219) 02 Feb 03:53:45 03:57:56 34° 255° (WSW) 04:02:04 437.305
HORYU 2 02 Feb 04:05:35 04:10:00 87° 101° (E) 04:14:27 437.375
SRMSAT 02 Feb 04:08:32 04:13:30 27° 197° (SSW) 04:18:24 437.500
M-CUBED/EXP-1 PRIME 02 Feb 04:27:26 04:31:45 45° 254° (WSW) 04:35:43 437.505
JAS-2 02 Feb 04:29:46 04:35:15 27° 103° (ESE) 04:41:27 435.910
PHONESAT 2.4 02 Feb 04:29:56 04:33:24 48° 137° (SE) 04:36:51 2401.200-2431.200
AO-7 02 Feb 04:38:59 04:47:12 70° 105° (ESE) 04:55:27 29.400- 29.500
VERMONT LUNAR 02 Feb 04:45:57 04:49:08 34° 317° (NW) 04:52:18 437.305
AUBIESAT-1 02 Feb 04:58:16 05:01:34 20° 254° (WSW) 05:04:32 437.475
JUGNU 02 Feb 05:15:02 05:16:23 11° 186° (S) 05:17:40 437.505
DANDE 02 Feb 05:29:50 05:35:44 25° 280° (W) 05:42:03 436.750
CUSAT 1 02 Feb 05:39:08 05:43:58 17° 281° (W) 05:48:34 437.405
RS-15 02 Feb 05:40:28 05:48:50 23° 295° (WNW) 05:56:21 29.354- 29.394
MOZHAYETS 4 02 Feb 05:44:58 05:49:32 60° 259° (WSW) 05:54:02
SRMSAT 02 Feb 06:00:41 06:03:22 13° 190° (S) 06:05:59 437.500
PHONESAT 2.4 02 Feb 06:11:03 06:11:56 11° 320° (NW) 06:12:38 2401.200-2431.200
PRISM 02 Feb 06:12:53 06:15:01 14° 80° (E) 06:17:22 437.425
JAS-2 02 Feb 06:14:05 06:20:07 34° 280° (W) 06:26:34 435.910
YUBILEINY 02 Feb 06:15:14 06:16:30 11° 83° (E) 06:18:56 435.215
CUBESAT XI-V 02 Feb 06:15:24 06:16:04 10° 80° (E) 06:17:07 437.345
Cubesat XI-IV 02 Feb 06:20:33 06:25:07 30° 102° (ESE) 06:29:49 437.490
AO-7 02 Feb 06:35:47 06:39:57 14° 284° (WNW) 06:43:21 29.400- 29.500
CUTE-I 02 Feb 06:38:47 06:43:56 49° 102° (ESE) 06:49:07 437.470
ISS 02 Feb 06:42:47 06:46:03 81° 235° (SW) 06:49:20 145.825
JUGNU 02 Feb 07:05:39 07:06:34 10° 175° (S) 07:07:32 437.505
SO-50 02 Feb 07:43:00 07:43:18 10° 115° (ESE) 07:43:56 436.795
PRISM 02 Feb 07:47:17 07:50:27 20° 259° (W) 07:53:27 437.425
CUBESAT XI-V 02 Feb 07:49:15 07:53:27 34° 259° (W) 07:57:35 437.345
STRAND 1 02 Feb 07:55:08 08:00:06 53° 258° (WSW) 08:05:02 437.568
Cubesat XI-IV 02 Feb 08:01:27 08:05:08 18° 281° (W) 08:08:33 437.490
YUBILEINY 02 Feb 08:04:40 08:13:29 78° 266° (W) 08:22:19 435.215
HO-68 02 Feb 08:05:12 08:06:09 10° 103° (ESE) 08:07:53 435.675
CUTE-I 02 Feb 08:22:57 08:23:58 10° 280° (W) 08:24:28 437.470
GOMX 1 02 Feb 08:33:04 08:34:24 11° 98° (E) 08:36:04 467.674
CUTE 1.7 + AOD 2 02 Feb 08:35:58 08:37:05 11° 100° (E) 08:38:33 437.475
JUGNU 02 Feb 08:52:38 08:56:30 18° 166° (SSE) 09:00:26 437.505
BRITE-PL 02 Feb 08:55:37 09:00:27 42° 100° (E) 09:05:00 437.365/2234.400
SEEDS 02 Feb 08:58:55 09:01:59 21° 100° (E) 09:05:12 437.485
CINEMA 3 02 Feb 09:18:41 09:20:37 13° 99° (E) 09:22:47 145.822/145.860
COMPASS 1 02 Feb 09:18:52 09:22:33 32° 101° (E) 09:26:18 437.405
SO-50 02 Feb 09:19:44 09:23:45 33° 293° (WNW) 09:27:46 436.795
SRMSAT 02 Feb 09:41:04 09:43:55 14° 170° (S) 09:46:51 437.500
AAUSAT CUBESAT 2 02 Feb 09:41:34 09:45:38 60° 101° (E) 09:49:45 437.432
CANX-2 02 Feb 09:45:17 09:49:23 53° 281° (W) 09:53:30 2200.000
HO-68 02 Feb 09:46:42 09:53:50 73° 284° (WNW) 10:01:00 435.675
ZACube-1 02 Feb 09:52:43 09:53:53 11° 99° (E) 09:55:22 437.345
DX 1 02 Feb 09:53:59 09:56:43 17° 101° (E) 09:59:39 434.975-435.025
DOVE 4 02 Feb 10:00:17 10:04:58 67° 282° (WNW) 10:09:23 437.250
CUBEBUG 2 02 Feb 10:01:16 10:04:48 26° 100° (E) 10:08:21 437.445
FUNcube-1 02 Feb 10:01:58 10:04:26 16° 100° (E) 10:07:06 145.935
GOMX 1 02 Feb 10:08:05 10:12:34 34° 282° (WNW) 10:16:44 467.674
CUTE 1.7 + AOD 2 02 Feb 10:09:21 10:12:56 27° 280° (W) 10:16:28 437.475
Oscar 11 02 Feb 10:24:52 10:29:09 80° 281° (WNW) 10:33:28 145.826/435.025
UWE-3 02 Feb 10:31:46 10:35:57 60° 101° (E) 10:40:05 435.000/436.395/437.385
UNISAT 6 02 Feb 10:33:12 10:36:36 21° 80° (E) 10:40:11 437.425
SEEDS 02 Feb 10:35:17 10:37:43 15° 280° (W) 10:39:56 437.485
BRITE-PL 02 Feb 10:37:30 10:38:46 11° 282° (WNW) 10:39:35 437.365/2234.400
AISAT 02 Feb 10:37:57 10:41:12 21° 101° (E) 10:44:36 437.250
JUGNU 02 Feb 10:40:26 10:45:56 42° 160° (SSE) 10:51:27 437.505
DELFI C3 02 Feb 10:48:23 10:52:14 43° 281° (W) 10:56:06 145.870
BUGSAT 1 02 Feb 10:52:37 10:52:52 10° 80° (E) 10:53:27 437.445
QB50P2 02 Feb 10:52:45 10:55:30 18° 80° (E) 10:58:28 145.880/145.840
CINEMA 3 02 Feb 10:54:08 10:57:47 24° 281° (W) 11:01:14 145.822/145.860
ESTCUBE 1 02 Feb 10:55:48 10:57:21 12° 100° (E) 10:59:15 437.505/2401.250
HUMSAT D 02 Feb 10:56:06 11:00:02 47° 101° (E) 11:04:01 437.325/437.525
QB50P1 02 Feb 11:00:07 11:03:21 22° 80° (E) 11:06:43 145.935-145.965
CUBEBUG 1 02 Feb 11:00:54 11:02:38 12° 100° (E) 11:04:39 437.445
UKube-1 02 Feb 11:02:41 11:06:53 49° 282° (WNW) 11:11:06 .
VELOX 1 02 Feb 11:02:58 11:07:13 45° 101° (E) 11:11:30 145.980
ANTELSAT 02 Feb 11:08:18 11:12:58 63° 79° (ENE) 11:17:39 437.575/2403.000
TIGRISAT 02 Feb 11:13:29 11:18:10 73° 79° (E) 11:22:51 435.000
POLYITAN 1 02 Feb 11:17:02 11:21:02 40° 79° (E) 11:25:05 437.675
ZACube-1 02 Feb 11:26:39 11:30:12 26° 281° (W) 11:33:39 437.345
50 SAT 02 Feb 11:28:34 11:32:32 78° 282° (WNW) 11:36:29 437.505
SRMSAT 02 Feb 11:28:42 11:33:44 29° 162° (SSE) 11:38:48 437.500
DX 1 02 Feb 11:29:33 11:32:52 20° 281° (W) 11:36:02 434.975-435.025
AIST 1 02 Feb 11:31:34 11:35:49 67° 274° (W) 11:40:01
POPSAT HIP 1 02 Feb 11:34:30 11:38:45 73° 78° (ENE) 11:43:00 437.405
DUCHIFAT 1 02 Feb 11:34:36 11:38:50 72° 78° (ENE) 11:43:04 145.980
FUNcube-1 02 Feb 11:37:40 11:40:43 19° 280° (W) 11:43:34 145.935
CUBEBUG 2 02 Feb 11:39:50 11:41:25 11° 280° (W) 11:42:39 437.445
SPROUT 02 Feb 12:04:34 12:07:05 16° 100° (E) 12:09:49 437.525
UNISAT 6 02 Feb 12:09:47 12:13:17 20° 260° (W) 12:16:36 437.425
NANOSAT C BR1 02 Feb 12:10:37 12:14:26 32° 259° (W) 12:18:13 145.865
AISAT 02 Feb 12:14:38 12:17:43 18° 281° (W) 12:20:36 437.250
GONETS M04 02 Feb 12:14:47 12:19:53 18° 84° (E) 12:25:42
BUGSAT 1 02 Feb 12:24:48 12:28:16 27° 259° (W) 12:31:41 437.445
TISAT 1 02 Feb 12:25:44 12:29:28 31° 101° (E) 12:33:15 437.305
QB50P2 02 Feb 12:28:18 12:31:19 18° 260° (W) 12:34:12 145.880/145.840
JUGNU 02 Feb 12:29:10 12:35:00 70° 339° (NNW) 12:40:50 437.505
ESTCUBE 1 02 Feb 12:30:07 12:34:08 31° 281° (W) 12:38:07 437.505/2401.250
CUBEBUG 1 02 Feb 12:35:04 12:38:54 28° 281° (W) 12:42:39 437.445
QB50P1 02 Feb 12:36:42 12:39:08 14° 260° (W) 12:41:21 145.935-145.965
BEESAT 2 02 Feb 12:39:05 12:43:08 79° 66° (ENE) 12:47:09 435.950
BEESAT 3 02 Feb 12:48:48 12:52:47 59° 248° (WSW) 12:56:43 437.485
AIST 2 02 Feb 12:57:37 13:01:30 40° 68° (ENE) 13:05:23 435.215
SWISSCUBE 02 Feb 13:14:00 13:16:31 15° 101° (E) 13:19:19 437.505
SRMSAT 02 Feb 13:17:08 13:23:04 77° 159° (SSE) 13:29:02 437.500
BEESAT 02 Feb 13:28:01 13:31:28 21° 101° (E) 13:35:07 436.000
ITUPSAT 1 02 Feb 13:34:20 13:38:09 25° 101° (E) 13:42:07 437.325
SPROUT 02 Feb 13:39:46 13:43:04 21° 280° (W) 13:46:15 437.525
GONETS M04 02 Feb 14:08:15 14:16:41 54° 266° (W) 14:25:07
Oscar 19 02 Feb 14:15:59 14:21:13 82° 260° (W) 14:26:24 437.125/150
KKS-1 02 Feb 14:18:29 14:18:35 10° 100° (E) 14:19:04 437.445
JUGNU 02 Feb 14:19:20 14:24:12 26° 343° (NNW) 14:29:01 437.505
Gurwin Techsat 1B 02 Feb 14:26:24 14:30:11 21° 79° (E) 14:34:10 435.225
O/OREOS (USA 219) 02 Feb 14:26:53 14:29:40 17° 106° (ESE) 14:32:40 437.305
ITAMSAT 1 02 Feb 14:42:03 14:47:04 52° 78° (ENE) 14:52:06 435.822/435.867
PCSat 02 Feb 14:45:33 14:50:50 58° 70° (ENE) 14:56:09 145.827
VERMONT LUNAR 02 Feb 14:48:42 14:49:38 11° 40° (NE) 14:50:46 437.305
SWISSCUBE 02 Feb 14:50:08 14:54:16 28° 281° (W) 14:58:21 437.505
BEESAT 02 Feb 15:05:38 15:09:13 20° 281° (W) 15:12:38 436.000
RS-15 02 Feb 15:06:26 15:17:36 50° 68° (ENE) 15:29:19 29.354- 29.394
SRMSAT 02 Feb 15:06:49 15:12:20 39° 340° (NNW) 15:17:52 437.500
ITUPSAT 1 02 Feb 15:12:44 15:15:57 17° 281° (W) 15:18:57 437.325
AO-7 02 Feb 15:18:07 15:20:53 13° 76° (ENE) 15:24:31 29.400- 29.500
AUBIESAT-1 02 Feb 15:25:55 15:28:13 16° 106° (ESE) 15:30:48 437.475
STARS 02 Feb 15:34:23 15:38:47 80° 103° (ESE) 15:43:11 437.465
KKS-1 02 Feb 15:51:07 15:55:10 34° 281° (W) 15:59:09 437.445
O/OREOS (USA 219) 02 Feb 16:05:40 16:08:59 20° 286° (WNW) 16:12:08 437.305
Gurwin Techsat 1B 02 Feb 16:05:41 16:10:03 25° 259° (WSW) 16:14:16 435.225
JUGNU 02 Feb 16:11:17 16:13:53 13° 350° (N) 16:16:25 437.505
PHONESAT 2.4 02 Feb 16:11:50 16:15:17 42° 42° (NE) 16:18:46 2401.200-2431.200
HORYU 2 02 Feb 16:18:45 16:23:13 61° 258° (WSW) 16:27:39 437.375
VERMONT LUNAR 02 Feb 16:24:21 16:27:43 44° 223° (SW) 16:31:06 437.305
MOZHAYETS 4 02 Feb 16:28:27 16:29:18 11° 100° (E) 16:30:33
M-CUBED/EXP-1 PRIME 02 Feb 16:30:02 16:33:31 39° 284° (WNW) 16:37:17 437.505
DANDE 02 Feb 16:40:21 16:44:00 43° 267° (W) 16:46:54 436.750
CUSAT 1 02 Feb 16:45:55 16:48:39 22° 268° (W) 16:50:57 437.405
SRMSAT 02 Feb 16:58:08 17:01:59 17° 347° (NNW) 17:05:46 437.500
AUBIESAT-1 02 Feb 17:00:31 17:03:02 17° 282° (WNW) 17:05:29 437.475
